User: anonymous   Login
Location: Unspecified
(0.0000°N, 0.0000°E)
Time: 06:42:52
(UTC+00:00)
Language:

FORMOSAT 3D - Orbit

View from above orbital plane
View from above orbital plane
View from above satellite
View from above satellite

Ground track
Ground track

The orbit data is extracted from the following two-line orbital elements,

1 29050U 06011D   17087.90677189 +.00000257 +00000-0 +64980-4 0  9999
2 29050 072.0174 334.1381 0051672 301.4028 058.2076 14.58474715584765
Epoch (UTC): 28 March 2017 21:45:45
Eccentricity: 0.0051672
inclination: 72.0174°
perigee height: 661 km
apogee height: 734 km
right ascension of ascending node: 334.1381°
argument of perigee: 301.4028°
revolutions per day: 14.58474715
mean anomaly at epoch: 58.2076°
orbit number at epoch: 58476

The dashed part of the orbit path shows where the satellite is in the earth's shadow,  

DLR